Wetterdaten: Freitag, 14.03.2014
Datum Zeit Temperatur Luftfeuchte Luftdruck Regen Wind Richtung Richtung Taupunkt Windchill Windben
14.03.2014 00:00 1,0 C 87 % 1026,1 hPa 0,0 l/m 0,0 km/h (0 Bft) SW 225 -0,9 C 16,1 C 0,0 km/h (0 Bft)
14.03.2014 00:05 0,9 C 87 % 1026,0 hPa 0,0 l/m 0,0 km/h (0 Bft) SW 225 -1,0 C 16,1 C 0,0 km/h (0 Bft)
14.03.2014 00:10 0,6 C 87 % 1026,0 hPa 0,0 l/m 0,0 km/h (0 Bft) SW 225 -1,3 C 16,1 C 0,0 km/h (0 Bft)
14.03.2014 00:15 0,7 C 87 % 1026,0 hPa 0,0 l/m 0,0 km/h (0 Bft) SW 225 -1,2 C 16,1 C 0,0 km/h (0 Bft)
14.03.2014 00:20 0,7 C 88 % 1026,0 hPa 0,0 l/m 0,0 km/h (0 Bft) SW 225 -1,1 C 16,1 C 0,0 km/h (0 Bft)
14.03.2014 00:25 0,6 C 87 % 1026,0 hPa 0,0 l/m 0,0 km/h (0 Bft) SW 225 -1,3 C 16,1 C 0,0 km/h (0 Bft)
14.03.2014 00:30 0,7 C 88 % 1026,0 hPa 0,0 l/m 0,0 km/h (0 Bft) SW 225 -1,1 C 16,1 C 0,0 km/h (0 Bft)
14.03.2014 00:35 0,5 C 87 % 1026,0 hPa 0,0 l/m 0,0 km/h (0 Bft) SW 225 -1,4 C 16,1 C 0,0 km/h (0 Bft)
14.03.2014 00:40 1,2 C 88 % 1026,0 hPa 0,0 l/m 0,0 km/h (0 Bft) SW 225 -0,6 C 16,1 C 0,0 km/h (0 Bft)
14.03.2014 00:45 1,8 C 88 % 1025,8 hPa 0,0 l/m 0,0 km/h (0 Bft) SW 225 0,0 C 16,1 C 0,0 km/h (0 Bft)
14.03.2014 00:50 1,4 C 88 % 1025,8 hPa 0,0 l/m 0,0 km/h (0 Bft) SW 225 -0,4 C 16,1 C 0,0 km/h (0 Bft)
14.03.2014 00:55 1,5 C 89 % 1025,8 hPa 0,0 l/m 0,0 km/h (0 Bft) SW 225 -0,1 C 16,1 C 0,0 km/h (0 Bft)
14.03.2014 01:00 1,0 C 88 % 1025,8 hPa 0,0 l/m 0,0 km/h (0 Bft) SW 225 -0,8 C 16,1 C 0,0 km/h (0 Bft)
14.03.2014 01:05 0,9 C 89 % 1025,8 hPa 0,0 l/m 0,0 km/h (0 Bft) SW 225 -0,7 C 16,1 C 0,0 km/h (0 Bft)
14.03.2014 01:10 0,8 C 88 % 1025,8 hPa 0,0 l/m 0,0 km/h (0 Bft) SW 225 -1,0 C 16,1 C 0,0 km/h (0 Bft)
14.03.2014 01:15 0,7 C 88 % 1025,8 hPa 0,0 l/m 0,0 km/h (0 Bft) SW 225 -1,1 C 16,1 C 0,0 km/h (0 Bft)
14.03.2014 01:20 0,8 C 88 % 1025,8 hPa 0,0 l/m 0,0 km/h (0 Bft) SW 225 -1,0 C 16,1 C 0,0 km/h (0 Bft)
14.03.2014 01:25 1,1 C 88 % 1026,1 hPa 0,0 l/m 0,0 km/h (0 Bft) SW 225 -0,7 C 16,1 C 0,0 km/h (0 Bft)
14.03.2014 01:30 1,9 C 89 % 1026,1 hPa 0,0 l/m 0,0 km/h (0 Bft) SW 225 0,3 C 16,1 C 0,0 km/h (0 Bft)
14.03.2014 01:35 1,1 C 89 % 1026,1 hPa 0,0 l/m 0,0 km/h (0 Bft) SW 225 -0,5 C 16,1 C 0,0 km/h (0 Bft)
14.03.2014 01:40 0,8 C 89 % 1026,1 hPa 0,0 l/m 0,0 km/h (0 Bft) SW 225 -0,8 C 16,1 C 0,0 km/h (0 Bft)
14.03.2014 01:45 0,7 C 89 % 1025,9 hPa 0,0 l/m 0,0 km/h (0 Bft) SW 225 -0,9 C 16,1 C 0,0 km/h (0 Bft)
14.03.2014 01:50 0,9 C 89 % 1025,9 hPa 0,0 l/m 0,0 km/h (0 Bft) SW 225 -0,7 C 16,1 C 0,0 km/h (0 Bft)
14.03.2014 01:55 0,8 C 89 % 1025,9 hPa 0,0 l/m 0,0 km/h (0 Bft) SW 225 -0,8 C 16,1 C 0,0 km/h (0 Bft)
14.03.2014 02:00 0,7 C 89 % 1025,9 hPa 0,0 l/m 0,0 km/h (0 Bft) SW 225 -0,9 C 16,1 C 0,0 km/h (0 Bft)
14.03.2014 02:05 0,6 C 89 % 1025,9 hPa 0,0 l/m 0,0 km/h (0 Bft) SW 225 -1,0 C 16,1 C 0,0 km/h (0 Bft)
14.03.2014 02:10 0,9 C 89 % 1025,9 hPa 0,0 l/m 0,0 km/h (0 Bft) SW 225 -0,7 C 16,1 C 0,0 km/h (0 Bft)
14.03.2014 02:15 0,9 C 89 % 1025,9 hPa 0,0 l/m 0,0 km/h (0 Bft) SW 225 -0,7 C 16,1 C 0,0 km/h (0 Bft)
14.03.2014 02:20 0,5 C 89 % 1025,9 hPa 0,0 l/m 0,0 km/h (0 Bft) SW 225 -1,1 C 16,1 C 0,0 km/h (0 Bft)
14.03.2014 02:25 0,4 C 89 % 1025,8 hPa 0,0 l/m 0,0 km/h (0 Bft) SW 225 -1,2 C 16,1 C 0,0 km/h (0 Bft)
14.03.2014 02:30 0,3 C 89 % 1025,8 hPa 0,0 l/m 0,0 km/h (0 Bft) SW 225 -1,3 C 16,1 C 0,0 km/h (0 Bft)
14.03.2014 02:35 0,4 C 89 % 1025,8 hPa 0,0 l/m 0,0 km/h (0 Bft) SW 225 -1,2 C 16,1 C 0,0 km/h (0 Bft)
14.03.2014 02:40 0,7 C 89 % 1025,8 hPa 0,0 l/m 0,0 km/h (0 Bft) SW 225 -0,9 C 16,1 C 0,0 km/h (0 Bft)
14.03.2014 02:45 0,3 C 89 % 1025,8 hPa 0,0 l/m 0,0 km/h (0 Bft) SW 225 -1,3 C 16,1 C 0,0 km/h (0 Bft)
14.03.2014 02:50 0,6 C 89 % 1025,8 hPa 0,0 l/m 0,0 km/h (0 Bft) SW 225 -1,0 C 16,1 C 0,0 km/h (0 Bft)
14.03.2014 02:55 0,3 C 89 % 1025,8 hPa 0,0 l/m 0,0 km/h (0 Bft) SW 225 -1,3 C 16,1 C 0,0 km/h (0 Bft)
14.03.2014 03:00 0,2 C 89 % 1025,8 hPa 0,0 l/m 0,0 km/h (0 Bft) SW 225 -1,4 C 16,1 C 0,0 km/h (0 Bft)
14.03.2014 03:05 0,3 C 89 % 1025,6 hPa 0,0 l/m 0,0 km/h (0 Bft) SW 225 -1,3 C 16,1 C 0,0 km/h (0 Bft)
14.03.2014 03:10 0,2 C 89 % 1025,6 hPa 0,0 l/m 0,0 km/h (0 Bft) SW 225 -1,4 C 16,1 C 0,0 km/h (0 Bft)
14.03.2014 03:15 0,4 C 90 % 1025,6 hPa 0,0 l/m 0,0 km/h (0 Bft) SW 225 -1,0 C 16,1 C 0,0 km/h (0 Bft)
14.03.2014 03:20 0,5 C 90 % 1025,6 hPa 0,0 l/m 0,0 km/h (0 Bft) SW 225 -0,9 C 16,1 C 0,0 km/h (0 Bft)
14.03.2014 03:25 0,4 C 90 % 1025,6 hPa 0,0 l/m 0,0 km/h (0 Bft) SW 225 -1,0 C 16,1 C 0,0 km/h (0 Bft)
14.03.2014 03:30 0,1 C 90 % 1025,6 hPa 0,0 l/m 0,0 km/h (0 Bft) SW 225 -1,3 C 16,1 C 0,0 km/h (0 Bft)
14.03.2014 03:35 -0,1 C 89 % 1025,6 hPa 0,0 l/m 0,0 km/h (0 Bft) SW 225 -1,7 C 16,1 C 0,0 km/h (0 Bft)
14.03.2014 03:40 0,0 C 90 % 1025,6 hPa 0,0 l/m 0,0 km/h (0 Bft) SW 225 -1,4 C 16,1 C 0,0 km/h (0 Bft)
14.03.2014 03:45 -0,2 C 90 % 1025,8 hPa 0,0 l/m 0,0 km/h (0 Bft) SW 225 -1,6 C 16,1 C 0,0 km/h (0 Bft)
14.03.2014 03:50 -0,3 C 90 % 1025,8 hPa 0,0 l/m 0,0 km/h (0 Bft) SW 225 -1,7 C 16,1 C 0,0 km/h (0 Bft)
14.03.2014 03:55 -0,3 C 90 % 1025,8 hPa 0,0 l/m 0,0 km/h (0 Bft) SW 225 -1,7 C 16,1 C 0,0 km/h (0 Bft)
14.03.2014 04:00 -0,2 C 90 % 1025,8 hPa 0,0 l/m 0,0 km/h (0 Bft) SW 225 -1,6 C 16,1 C 0,0 km/h (0 Bft)
14.03.2014 04:05 -0,2 C 90 % 1025,8 hPa 0,0 l/m 0,0 km/h (0 Bft) SW 225 -1,6 C 16,1 C 0,0 km/h (0 Bft)
14.03.2014 04:10 -0,3 C 90 % 1025,8 hPa 0,0 l/m 0,0 km/h (0 Bft) SW 225 -1,7 C 16,1 C 0,0 km/h (0 Bft)
14.03.2014 04:15 -0,1 C 90 % 1025,8 hPa 0,0 l/m 0,0 km/h (0 Bft) SW 225 -1,5 C 16,1 C 0,0 km/h (0 Bft)
14.03.2014 04:20 -0,3 C 90 % 1025,8 hPa 0,0 l/m 0,0 km/h (0 Bft) SW 225 -1,7 C 16,1 C 0,0 km/h (0 Bft)
14.03.2014 04:25 -0,1 C 90 % 1025,7 hPa 0,0 l/m 0,0 km/h (0 Bft) SW 225 -1,5 C 16,1 C 0,0 km/h (0 Bft)
14.03.2014 04:30 -0,2 C 90 % 1025,7 hPa 0,0 l/m 0,0 km/h (0 Bft) SW 225 -1,6 C 16,1 C 0,0 km/h (0 Bft)
14.03.2014 04:35 -0,4 C 90 % 1025,7 hPa 0,0 l/m 0,0 km/h (0 Bft) SW 225 -1,8 C 16,1 C 0,0 km/h (0 Bft)
14.03.2014 04:40 -0,2 C 90 % 1025,7 hPa 0,0 l/m 0,0 km/h (0 Bft) SW 225 -1,6 C 16,1 C 0,0 km/h (0 Bft)
14.03.2014 04:45 0,0 C 91 % 1025,8 hPa 0,0 l/m 0,0 km/h (0 Bft) SW 225 -1,3 C 16,1 C 0,0 km/h (0 Bft)
14.03.2014 04:50 -0,3 C 91 % 1025,8 hPa 0,0 l/m 0,0 km/h (0 Bft) SW 225 -1,6 C 16,1 C 0,0 km/h (0 Bft)
14.03.2014 04:55 -0,3 C 91 % 1025,8 hPa 0,0 l/m 0,0 km/h (0 Bft) SW 225 -1,6 C 16,1 C 0,0 km/h (0 Bft)
14.03.2014 05:00 -0,1 C 91 % 1025,8 hPa 0,0 l/m 0,0 km/h (0 Bft) SW 225 -1,4 C 16,1 C 0,0 km/h (0 Bft)
14.03.2014 05:05 -0,4 C 91 % 1025,4 hPa 0,0 l/m 0,0 km/h (0 Bft) SW 225 -1,7 C 16,1 C 0,0 km/h (0 Bft)
14.03.2014 05:10 -0,5 C 90 % 1025,4 hPa 0,0 l/m 0,0 km/h (0 Bft) SW 225 -1,9 C 16,1 C 0,0 km/h (0 Bft)
14.03.2014 05:15 -0,9 C 90 % 1025,4 hPa 0,0 l/m 0,0 km/h (0 Bft) SW 225 -2,3 C 16,1 C 0,0 km/h (0 Bft)
14.03.2014 05:20 -0,7 C 90 % 1025,4 hPa 0,0 l/m 0,0 km/h (0 Bft) SW 225 -2,1 C 16,1 C 0,0 km/h (0 Bft)
14.03.2014 05:25 -0,5 C 91 % 1025,6 hPa 0,0 l/m 0,0 km/h (0 Bft) SW 225 -1,8 C 16,1 C 0,0 km/h (0 Bft)
14.03.2014 05:30 -0,9 C 90 % 1025,6 hPa 0,0 l/m 0,0 km/h (0 Bft) SW 225 -2,3 C 16,1 C 0,0 km/h (0 Bft)
14.03.2014 05:35 -0,7 C 91 % 1025,6 hPa 0,0 l/m 0,0 km/h (0 Bft) SW 225 -2,0 C 16,1 C 0,0 km/h (0 Bft)
14.03.2014 05:40 -0,7 C 91 % 1025,6 hPa 0,0 l/m 0,0 km/h (0 Bft) SW 225 -2,0 C 16,1 C 0,0 km/h (0 Bft)
14.03.2014 05:45 -0,6 C 91 % 1025,7 hPa 0,0 l/m 0,0 km/h (0 Bft) SW 225 -1,9 C 16,1 C 0,0 km/h (0 Bft)
14.03.2014 05:50 -0,5 C 91 % 1025,7 hPa 0,0 l/m 0,0 km/h (0 Bft) SW 225 -1,8 C 16,1 C 0,0 km/h (0 Bft)
14.03.2014 05:55 -0,9 C 91 % 1025,7 hPa 0,0 l/m 0,0 km/h (0 Bft) SW 225 -2,2 C 16,1 C 0,0 km/h (0 Bft)
14.03.2014 06:00 -0,2 C 92 % 1025,7 hPa 0,0 l/m 0,0 km/h (0 Bft) SW 225 -1,3 C 16,1 C 0,0 km/h (0 Bft)
14.03.2014 06:05 -0,2 C 92 % 1025,4 hPa 0,0 l/m 0,0 km/h (0 Bft) SW 225 -1,3 C 16,1 C 0,0 km/h (0 Bft)
14.03.2014 06:10 -0,5 C 92 % 1025,4 hPa 0,0 l/m 0,0 km/h (0 Bft) SW 225 -1,6 C 16,1 C 0,0 km/h (0 Bft)
14.03.2014 06:15 -0,6 C 92 % 1025,4 hPa 0,0 l/m 0,0 km/h (0 Bft) SW 225 -1,7 C 16,1 C 0,0 km/h (0 Bft)
14.03.2014 06:20 -0,4 C 93 % 1025,4 hPa 0,0 l/m 0,0 km/h (0 Bft) SW 225 -1,4 C 16,1 C 0,0 km/h (0 Bft)
14.03.2014 06:25 -0,4 C 93 % 1025,4 hPa 0,0 l/m 0,0 km/h (0 Bft) SW 225 -1,4 C 16,1 C 0,0 km/h (0 Bft)
14.03.2014 06:30 -0,5 C 93 % 1025,4 hPa 0,0 l/m 0,0 km/h (0 Bft) SW 225 -1,5 C 16,1 C 0,0 km/h (0 Bft)
14.03.2014 06:35 -0,5 C 93 % 1025,4 hPa 0,0 l/m 0,0 km/h (0 Bft) SW 225 -1,5 C 16,1 C 0,0 km/h (0 Bft)
14.03.2014 06:40 -0,3 C 94 % 1025,4 hPa 0,0 l/m 0,0 km/h (0 Bft) SW 225 -1,1 C 16,1 C 0,0 km/h (0 Bft)
14.03.2014 06:45 -0,1 C 94 % 1025,5 hPa 0,0 l/m 0,0 km/h (0 Bft) SW 225 -0,9 C 16,1 C 0,0 km/h (0 Bft)
14.03.2014 06:50 -0,5 C 94 % 1025,5 hPa 0,0 l/m 0,0 km/h (0 Bft) SW 225 -1,3 C 16,1 C 0,0 km/h (0 Bft)
14.03.2014 06:55 -0,2 C 94 % 1025,5 hPa 0,0 l/m 0,0 km/h (0 Bft) SW 225 -1,0 C 16,1 C 0,0 km/h (0 Bft)
14.03.2014 07:00 0,0 C 94 % 1025,5 hPa 0,0 l/m 0,0 km/h (0 Bft) SW 225 -0,8 C 16,1 C 0,0 km/h (0 Bft)
14.03.2014 07:05 0,1 C 95 % 1025,7 hPa 0,0 l/m 0,0 km/h (0 Bft) SW 225 -0,6 C 16,1 C 0,0 km/h (0 Bft)
14.03.2014 07:10 -0,1 C 95 % 1025,7 hPa 0,0 l/m 0,0 km/h (0 Bft) SW 225 -0,8 C 16,1 C 0,0 km/h (0 Bft)
14.03.2014 07:15 0,3 C 95 % 1025,7 hPa 0,0 l/m 0,0 km/h (0 Bft) SW 225 -0,4 C 16,1 C 0,0 km/h (0 Bft)
14.03.2014 07:20 0,1 C 95 % 1025,7 hPa 0,0 l/m 0,0 km/h (0 Bft) SW 225 -0,6 C 16,1 C 0,0 km/h (0 Bft)
14.03.2014 07:25 0,4 C 95 % 1025,8 hPa 0,0 l/m 0,0 km/h (0 Bft) SW 225 -0,3 C 16,1 C 0,0 km/h (0 Bft)
14.03.2014 07:30 0,5 C 95 % 1025,8 hPa 0,0 l/m 0,0 km/h (0 Bft) SW 225 -0,2 C 16,1 C 0,0 km/h (0 Bft)
14.03.2014 07:35 0,5 C 95 % 1025,8 hPa 0,0 l/m 0,0 km/h (0 Bft) SW 225 -0,2 C 16,1 C 0,0 km/h (0 Bft)
14.03.2014 07:40 0,8 C 95 % 1025,8 hPa 0,0 l/m 0,0 km/h (0 Bft) SW 225 0,1 C 16,1 C 0,0 km/h (0 Bft)
14.03.2014 07:45 0,8 C 95 % 1025,8 hPa 0,0 l/m 0,0 km/h (0 Bft) SW 225 0,1 C 16,1 C 0,0 km/h (0 Bft)
14.03.2014 07:50 1,1 C 95 % 1025,8 hPa 0,0 l/m 0,0 km/h (0 Bft) SW 225 0,4 C 16,1 C 0,0 km/h (0 Bft)
14.03.2014 07:55 1,2 C 95 % 1025,8 hPa 0,0 l/m 0,0 km/h (0 Bft) SW 225 0,5 C 16,1 C 0,0 km/h (0 Bft)
14.03.2014 08:00 1,4 C 95 % 1025,8 hPa 0,0 l/m 0,0 km/h (0 Bft) SW 225 0,7 C 16,1 C 0,0 km/h (0 Bft)
14.03.2014 08:05 1,6 C 95 % 1025,9 hPa 0,0 l/m 0,0 km/h (0 Bft) SW 225 0,9 C 16,1 C 0,0 km/h (0 Bft)
14.03.2014 08:10 1,8 C 96 % 1025,9 hPa 0,0 l/m 0,0 km/h (0 Bft) SW 225 1,2 C 16,1 C 0,0 km/h (0 Bft)
14.03.2014 08:15 1,8 C 96 % 1025,9 hPa 0,0 l/m 0,0 km/h (0 Bft) SW 225 1,2 C 16,1 C 0,0 km/h (0 Bft)
14.03.2014 08:20 2,9 C 95 % 1025,9 hPa 0,0 l/m 0,0 km/h (0 Bft) SW 225 2,2 C 16,1 C 0,0 km/h (0 Bft)
14.03.2014 08:25 3,4 C 95 % 1026,1 hPa 0,0 l/m 0,0 km/h (0 Bft) SW 225 2,7 C 16,1 C 0,0 km/h (0 Bft)
14.03.2014 08:30 3,8 C 95 % 1026,1 hPa 0,0 l/m 0,0 km/h (0 Bft) SW 225 3,1 C 16,1 C 0,0 km/h (0 Bft)
14.03.2014 08:35 3,6 C 94 % 1026,1 hPa 0,0 l/m 0,0 km/h (0 Bft) SW 225 2,7 C 16,1 C 0,0 km/h (0 Bft)
14.03.2014 08:40 5,2 C 94 % 1026,1 hPa 0,0 l/m 0,0 km/h (0 Bft) SW 225 4,3 C 16,1 C 0,0 km/h (0 Bft)
14.03.2014 08:45 6,6 C 93 % 1026,1 hPa 0,0 l/m 0,0 km/h (0 Bft) SW 225 5,6 C 16,1 C 0,0 km/h (0 Bft)
14.03.2014 08:50 5,7 C 93 % 1026,1 hPa 0,0 l/m 0,0 km/h (0 Bft) SW 225 4,7 C 16,1 C 0,0 km/h (0 Bft)
14.03.2014 08:55 6,7 C 91 % 1026,1 hPa 0,0 l/m 0,0 km/h (0 Bft) SW 225 5,3 C 16,1 C 0,0 km/h (0 Bft)
14.03.2014 09:00 8,0 C 90 % 1026,1 hPa 0,0 l/m 0,0 km/h (0 Bft) SW 225 6,5 C 16,1 C 0,0 km/h (0 Bft)
14.03.2014 09:05 8,0 C 90 % 1026,7 hPa 0,0 l/m 0,0 km/h (0 Bft) SW 225 6,5 C 16,1 C 0,0 km/h (0 Bft)
14.03.2014 09:10 9,0 C 88 % 1026,7 hPa 0,0 l/m 0,0 km/h (0 Bft) SW 225 7,1 C 16,1 C 0,0 km/h (0 Bft)
14.03.2014 09:15 9,9 C 87 % 1026,7 hPa 0,0 l/m 0,0 km/h (0 Bft) SW 225 7,8 C 16,1 C 0,0 km/h (0 Bft)
14.03.2014 09:20 11,2 C 84 % 1026,7 hPa 0,0 l/m 0,0 km/h (0 Bft) SW 225 8,6 C 16,1 C 0,0 km/h (0 Bft)
14.03.2014 09:25 11,4 C 81 % 1026,4 hPa 0,0 l/m 0,0 km/h (0 Bft) SW 225 8,3 C 16,1 C 0,0 km/h (0 Bft)
14.03.2014 09:30 11,7 C 80 % 1026,4 hPa 0,0 l/m 0,0 km/h (0 Bft) SW 225 8,4 C 16,1 C 0,0 km/h (0 Bft)
14.03.2014 09:33 11,8 C 72 % 1026,4 hPa 0,0 l/m 0,0 km/h (0 Bft) SW 225 6,9 C 16,1 C 0,0 km/h (0 Bft)
14.03.2014 09:35 11,8 C 72 % 1026,4 hPa 0,0 l/m 0,0 km/h (0 Bft) SW 225 6,9 C 16,1 C 0,0 km/h (0 Bft)
14.03.2014 09:40 12,2 C 73 % 1026,4 hPa 0,0 l/m 0,0 km/h (0 Bft) SW 225 7,5 C 16,1 C 0,0 km/h (0 Bft)
14.03.2014 09:45 12,6 C 75 % 1026,5 hPa 0,0 l/m 0,0 km/h (0 Bft) SW 225 8,3 C 16,1 C 0,0 km/h (0 Bft)
14.03.2014 09:50 12,5 C 59 % 1026,5 hPa 0,0 l/m 0,0 km/h (0 Bft) SW 225 4,7 C 16,1 C 0,0 km/h (0 Bft)
14.03.2014 09:55 13,0 C 65 % 1026,5 hPa 0,0 l/m 0,0 km/h (0 Bft) SW 225 6,6 C 16,1 C 0,0 km/h (0 Bft)
14.03.2014 10:00 13,7 C 66 % 1026,5 hPa 0,0 l/m 0,0 km/h (0 Bft) SW 225 7,5 C 16,1 C 0,0 km/h (0 Bft)
14.03.2014 10:05 14,5 C 71 % 1026,5 hPa 0,0 l/m 0,0 km/h (0 Bft) SW 225 9,3 C 16,1 C 0,0 km/h (0 Bft)
14.03.2014 10:10 14,3 C 62 % 1026,5 hPa 0,0 l/m 0,0 km/h (0 Bft) SW 225 7,1 C 16,1 C 0,0 km/h (0 Bft)
14.03.2014 10:15 14,8 C 67 % 1026,5 hPa 0,0 l/m 0,0 km/h (0 Bft) SW 225 8,7 C 16,1 C 0,0 km/h (0 Bft)
14.03.2014 10:20 15,0 C 57 % 1026,5 hPa 0,0 l/m 0,0 km/h (0 Bft) SW 225 6,6 C 16,1 C 0,0 km/h (0 Bft)
14.03.2014 10:25 15,5 C 49 % 1026,5 hPa 0,0 l/m 0,0 km/h (0 Bft) SW 225 4,8 C 16,1 C 0,0 km/h (0 Bft)
14.03.2014 10:30 16,5 C 53 % 1026,5 hPa 0,0 l/m 0,0 km/h (0 Bft) SW 225 6,9 C 16,1 C 0,0 km/h (0 Bft)
14.03.2014 10:35 16,5 C 50 % 1026,5 hPa 0,0 l/m 0,0 km/h (0 Bft) SW 225 6,0 C 16,1 C 0,0 km/h (0 Bft)
14.03.2014 10:40 15,6 C 42 % 1026,5 hPa 0,0 l/m 0,0 km/h (0 Bft) SW 225 2,7 C 16,1 C 0,0 km/h (0 Bft)
14.03.2014 10:45 15,2 C 41 % 1026,6 hPa 0,0 l/m 0,0 km/h (0 Bft) SW 225 2,0 C 16,1 C 0,0 km/h (0 Bft)
14.03.2014 10:50 16,3 C 43 % 1026,6 hPa 0,0 l/m 0,0 km/h (0 Bft) SW 225 3,7 C 16,1 C 0,0 km/h (0 Bft)
14.03.2014 10:55 17,6 C 45 % 1026,6 hPa 0,0 l/m 0,0 km/h (0 Bft) SW 225 5,5 C 16,1 C 0,0 km/h (0 Bft)
14.03.2014 11:00 16,7 C 40 % 1026,6 hPa 0,0 l/m 0,0 km/h (0 Bft) SW 225 3,0 C 16,1 C 0,0 km/h (0 Bft)
14.03.2014 11:05 17,1 C 40 % 1026,5 hPa 0,0 l/m 0,0 km/h (0 Bft) SW 225 3,4 C 16,1 C 0,0 km/h (0 Bft)
14.03.2014 11:10 18,0 C 39 % 1026,5 hPa 0,0 l/m 0,0 km/h (0 Bft) SW 225 3,8 C 16,1 C 0,0 km/h (0 Bft)
14.03.2014 11:15 17,6 C 38 % 1026,5 hPa 0,0 l/m 0,0 km/h (0 Bft) SW 225 3,1 C 16,1 C 0,0 km/h (0 Bft)
14.03.2014 11:20 18,2 C 37 % 1026,5 hPa 0,0 l/m 0,0 km/h (0 Bft) SW 225 3,3 C 16,1 C 0,0 km/h (0 Bft)
14.03.2014 11:25 17,7 C 37 % 1026,6 hPa 0,0 l/m 0,0 km/h (0 Bft) SW 225 2,8 C 16,1 C 0,0 km/h (0 Bft)
14.03.2014 11:30 18,2 C 38 % 1026,6 hPa 0,0 l/m 0,0 km/h (0 Bft) SW 225 3,7 C 16,1 C 0,0 km/h (0 Bft)
14.03.2014 11:35 17,2 C 37 % 1026,6 hPa 0,0 l/m 0,0 km/h (0 Bft) SW 225 2,4 C 16,1 C 0,0 km/h (0 Bft)
14.03.2014 11:40 18,3 C 38 % 1026,6 hPa 0,0 l/m 0,0 km/h (0 Bft) SW 225 3,7 C 16,1 C 0,0 km/h (0 Bft)
14.03.2014 11:45 18,8 C 37 % 1026,5 hPa 0,0 l/m 0,0 km/h (0 Bft) SW 225 3,8 C 16,1 C 0,0 km/h (0 Bft)
14.03.2014 11:50 18,2 C 37 % 1026,5 hPa 0,0 l/m 0,0 km/h (0 Bft) SW 225 3,3 C 16,1 C 0,0 km/h (0 Bft)
14.03.2014 11:55 17,5 C 36 % 1026,5 hPa 0,0 l/m 0,0 km/h (0 Bft) SW 225 2,3 C 16,1 C 0,0 km/h (0 Bft)
14.03.2014 12:00 17,8 C 36 % 1026,5 hPa 0,0 l/m 0,0 km/h (0 Bft) SW 225 2,5 C 16,1 C 0,0 km/h (0 Bft)
14.03.2014 12:05 18,0 C 37 % 1026,4 hPa 0,0 l/m 0,0 km/h (0 Bft) SW 225 3,1 C 16,1 C 0,0 km/h (0 Bft)
14.03.2014 12:10 18,7 C 37 % 1026,4 hPa 0,0 l/m 0,0 km/h (0 Bft) SW 225 3,7 C 16,1 C 0,0 km/h (0 Bft)
14.03.2014 12:15 18,2 C 37 % 1026,4 hPa 0,0 l/m 0,0 km/h (0 Bft) SW 225 3,3 C 16,1 C 0,0 km/h (0 Bft)
14.03.2014 12:20 17,8 C 38 % 1026,4 hPa 0,0 l/m 0,0 km/h (0 Bft) SW 225 3,3 C 16,1 C 0,0 km/h (0 Bft)
14.03.2014 12:25 18,0 C 37 % 1026,2 hPa 0,0 l/m 0,0 km/h (0 Bft) SW 225 3,1 C 16,1 C 0,0 km/h (0 Bft)
14.03.2014 12:30 18,2 C 38 % 1026,2 hPa 0,0 l/m 0,0 km/h (0 Bft) SW 225 3,7 C 16,1 C 0,0 km/h (0 Bft)
14.03.2014 12:35 18,6 C 38 % 1026,2 hPa 0,0 l/m 0,0 km/h (0 Bft) SW 225 4,0 C 16,1 C 0,0 km/h (0 Bft)
14.03.2014 12:40 18,4 C 37 % 1026,2 hPa 0,0 l/m 0,0 km/h (0 Bft) SW 225 3,5 C 16,1 C 0,0 km/h (0 Bft)
14.03.2014 12:45 17,4 C 38 % 1026,2 hPa 0,0 l/m 0,0 km/h (0 Bft) SW 225 2,9 C 16,1 C 0,0 km/h (0 Bft)
14.03.2014 12:50 17,1 C 39 % 1026,2 hPa 0,0 l/m 0,0 km/h (0 Bft) SW 225 3,0 C 16,1 C 0,0 km/h (0 Bft)
14.03.2014 12:55 17,9 C 40 % 1026,2 hPa 0,0 l/m 0,0 km/h (0 Bft) SW 225 4,1 C 16,1 C 0,0 km/h (0 Bft)
14.03.2014 13:00 17,1 C 39 % 1026,2 hPa 0,0 l/m 0,0 km/h (0 Bft) SW 225 3,0 C 16,1 C 0,0 km/h (0 Bft)
14.03.2014 13:05 18,0 C 38 % 1026,2 hPa 0,0 l/m 0,0 km/h (0 Bft) SW 225 3,5 C 16,1 C 0,0 km/h (0 Bft)
14.03.2014 13:10 17,6 C 38 % 1026,2 hPa 0,0 l/m 0,0 km/h (0 Bft) SW 225 3,1 C 16,1 C 0,0 km/h (0 Bft)
14.03.2014 13:15 16,8 C 39 % 1026,2 hPa 0,0 l/m 0,0 km/h (0 Bft) SW 225 2,8 C 16,1 C 0,0 km/h (0 Bft)
14.03.2014 13:20 17,3 C 38 % 1026,2 hPa 0,0 l/m 0,0 km/h (0 Bft) SW 225 2,9 C 16,1 C 0,0 km/h (0 Bft)
14.03.2014 13:25 17,1 C 38 % 1025,7 hPa 0,0 l/m 0,0 km/h (0 Bft) SW 225 2,7 C 16,1 C 0,0 km/h (0 Bft)
14.03.2014 13:30 17,3 C 38 % 1025,7 hPa 0,0 l/m 0,0 km/h (0 Bft) SW 225 2,9 C 16,1 C 0,0 km/h (0 Bft)
14.03.2014 13:35 17,6 C 38 % 1025,7 hPa 0,0 l/m 0,0 km/h (0 Bft) SW 225 3,1 C 16,1 C 0,0 km/h (0 Bft)
14.03.2014 13:40 17,5 C 38 % 1025,7 hPa 0,0 l/m 0,0 km/h (0 Bft) SW 225 3,0 C 16,1 C 0,0 km/h (0 Bft)
14.03.2014 13:45 17,7 C 37 % 1025,4 hPa 0,0 l/m 0,0 km/h (0 Bft) SW 225 2,8 C 16,1 C 0,0 km/h (0 Bft)
14.03.2014 13:50 17,9 C 37 % 1025,4 hPa 0,0 l/m 0,0 km/h (0 Bft) SW 225 3,0 C 16,1 C 0,0 km/h (0 Bft)
14.03.2014 13:55 17,9 C 36 % 1025,4 hPa 0,0 l/m 0,0 km/h (0 Bft) SW 225 2,6 C 16,1 C 0,0 km/h (0 Bft)
14.03.2014 14:00 18,1 C 36 % 1025,4 hPa 0,0 l/m 0,0 km/h (0 Bft) SW 225 2,8 C 16,1 C 0,0 km/h (0 Bft)
14.03.2014 14:05 17,7 C 36 % 1025,2 hPa 0,0 l/m 0,0 km/h (0 Bft) SW 225 2,4 C 16,1 C 0,0 km/h (0 Bft)
14.03.2014 14:10 18,2 C 36 % 1025,2 hPa 0,0 l/m 0,0 km/h (0 Bft) SW 225 2,9 C 16,1 C 0,0 km/h (0 Bft)
14.03.2014 14:15 18,0 C 35 % 1025,2 hPa 0,0 l/m 0,0 km/h (0 Bft) SW 225 2,3 C 16,1 C 0,0 km/h (0 Bft)
14.03.2014 14:20 18,1 C 37 % 1025,2 hPa 0,0 l/m 0,0 km/h (0 Bft) SW 225 3,2 C 16,1 C 0,0 km/h (0 Bft)
14.03.2014 14:25 18,3 C 35 % 1024,8 hPa 0,0 l/m 0,0 km/h (0 Bft) SW 225 2,6 C 16,1 C 0,0 km/h (0 Bft)
14.03.2014 14:30 18,0 C 35 % 1024,8 hPa 0,0 l/m 0,0 km/h (0 Bft) SW 225 2,3 C 16,1 C 0,0 km/h (0 Bft)
14.03.2014 14:33 17,9 C 35 % 1024,8 hPa 0,0 l/m 0,0 km/h (0 Bft) SW 225 2,2 C 16,1 C 0,0 km/h (0 Bft)
14.03.2014 14:35 17,9 C 35 % 1024,8 hPa 0,0 l/m 0,0 km/h (0 Bft) SW 225 2,2 C 16,1 C 0,0 km/h (0 Bft)
14.03.2014 14:40 17,4 C 35 % 1024,8 hPa 0,0 l/m 0,0 km/h (0 Bft) SW 225 1,8 C 16,1 C 0,0 km/h (0 Bft)
14.03.2014 14:45 17,4 C 35 % 1024,9 hPa 0,0 l/m 0,0 km/h (0 Bft) SW 225 1,8 C 16,1 C 0,0 km/h (0 Bft)
14.03.2014 14:50 17,6 C 35 % 1024,9 hPa 0,0 l/m 0,0 km/h (0 Bft) SW 225 2,0 C 16,1 C 0,0 km/h (0 Bft)
14.03.2014 14:55 17,5 C 33 % 1024,9 hPa 0,0 l/m 0,0 km/h (0 Bft) SW 225 1,1 C 16,1 C 0,0 km/h (0 Bft)
14.03.2014 15:00 17,6 C 35 % 1024,9 hPa 0,0 l/m 0,0 km/h (0 Bft) SW 225 2,0 C 16,1 C 0,0 km/h (0 Bft)
14.03.2014 15:05 17,6 C 35 % 1024,6 hPa 0,0 l/m 0,0 km/h (0 Bft) SW 225 2,0 C 16,1 C 0,0 km/h (0 Bft)
14.03.2014 15:10 17,1 C 33 % 1024,6 hPa 0,0 l/m 0,0 km/h (0 Bft) SW 225 0,7 C 16,1 C 0,0 km/h (0 Bft)
14.03.2014 15:15 17,5 C 34 % 1024,6 hPa 0,0 l/m 0,0 km/h (0 Bft) SW 225 1,5 C 16,1 C 0,0 km/h (0 Bft)
14.03.2014 15:20 17,4 C 34 % 1024,6 hPa 0,0 l/m 0,0 km/h (0 Bft) SW 225 1,4 C 16,1 C 0,0 km/h (0 Bft)
14.03.2014 15:25 17,4 C 34 % 1024,2 hPa 0,0 l/m 0,0 km/h (0 Bft) SW 225 1,4 C 16,1 C 0,0 km/h (0 Bft)
14.03.2014 15:30 17,3 C 34 % 1024,2 hPa 0,0 l/m 0,0 km/h (0 Bft) SW 225 1,3 C 16,1 C 0,0 km/h (0 Bft)
14.03.2014 15:35 17,2 C 34 % 1024,2 hPa 0,0 l/m 0,0 km/h (0 Bft) SW 225 1,2 C 16,1 C 0,0 km/h (0 Bft)
14.03.2014 15:40 17,0 C 34 % 1024,2 hPa 0,0 l/m 0,0 km/h (0 Bft) SW 225 1,0 C 16,1 C 0,0 km/h (0 Bft)
14.03.2014 15:45 16,8 C 34 % 1024,0 hPa 0,0 l/m 0,0 km/h (0 Bft) SW 225 0,9 C 16,1 C 0,0 km/h (0 Bft)
14.03.2014 15:50 16,8 C 35 % 1024,0 hPa 0,0 l/m 0,0 km/h (0 Bft) SW 225 1,3 C 16,1 C 0,0 km/h (0 Bft)
14.03.2014 15:55 16,3 C 34 % 1024,0 hPa 0,0 l/m 0,0 km/h (0 Bft) SW 225 0,4 C 16,1 C 0,0 km/h (0 Bft)
14.03.2014 16:00 15,9 C 33 % 1024,0 hPa 0,0 l/m 0,0 km/h (0 Bft) SW 225 -0,3 C 16,1 C 0,0 km/h (0 Bft)
14.03.2014 16:05 15,8 C 33 % 1023,7 hPa 0,0 l/m 0,0 km/h (0 Bft) SW 225 -0,4 C 16,1 C 0,0 km/h (0 Bft)
14.03.2014 16:10 15,8 C 34 % 1023,7 hPa 0,0 l/m 0,0 km/h (0 Bft) SW 225 -0,0 C 16,1 C 0,0 km/h (0 Bft)
14.03.2014 16:15 15,7 C 34 % 1023,7 hPa 0,0 l/m 0,0 km/h (0 Bft) SW 225 -0,1 C 16,1 C 0,0 km/h (0 Bft)
14.03.2014 16:20 15,6 C 33 % 1023,7 hPa 0,0 l/m 0,0 km/h (0 Bft) SW 225 -0,6 C 16,1 C 0,0 km/h (0 Bft)
14.03.2014 16:25 15,5 C 34 % 1023,6 hPa 0,0 l/m 0,0 km/h (0 Bft) SW 225 -0,3 C 16,1 C 0,0 km/h (0 Bft)
14.03.2014 16:30 15,1 C 34 % 1023,6 hPa 0,0 l/m 0,0 km/h (0 Bft) SW 225 -0,6 C 16,1 C 0,0 km/h (0 Bft)
14.03.2014 16:35 14,9 C 34 % 1023,6 hPa 0,0 l/m 0,0 km/h (0 Bft) SW 225 -0,8 C 16,1 C 0,0 km/h (0 Bft)
14.03.2014 16:40 14,9 C 35 % 1023,6 hPa 0,0 l/m 0,0 km/h (0 Bft) SW 225 -0,4 C 16,1 C 0,0 km/h (0 Bft)
14.03.2014 16:45 14,5 C 34 % 1023,2 hPa 0,0 l/m 0,0 km/h (0 Bft) SW 225 -1,2 C 16,1 C 0,0 km/h (0 Bft)
14.03.2014 16:50 14,2 C 35 % 1023,2 hPa 0,0 l/m 0,0 km/h (0 Bft) SW 225 -1,0 C 16,1 C 0,0 km/h (0 Bft)
14.03.2014 16:55 14,0 C 35 % 1023,2 hPa 0,0 l/m 0,0 km/h (0 Bft) SW 225 -1,2 C 16,1 C 0,0 km/h (0 Bft)
14.03.2014 17:00 13,9 C 36 % 1023,2 hPa 0,0 l/m 0,0 km/h (0 Bft) SW 225 -0,9 C 16,1 C 0,0 km/h (0 Bft)
14.03.2014 17:05 13,5 C 37 % 1022,9 hPa 0,0 l/m 0,0 km/h (0 Bft) SW 225 -0,9 C 16,1 C 0,0 km/h (0 Bft)
14.03.2014 17:10 13,3 C 37 % 1022,9 hPa 0,0 l/m 0,0 km/h (0 Bft) SW 225 -1,1 C 16,1 C 0,0 km/h (0 Bft)
14.03.2014 17:15 13,1 C 38 % 1022,9 hPa 0,0 l/m 0,0 km/h (0 Bft) SW 225 -0,9 C 16,1 C 0,0 km/h (0 Bft)
14.03.2014 17:20 12,9 C 39 % 1022,9 hPa 0,0 l/m 0,0 km/h (0 Bft) SW 225 -0,7 C 16,1 C 0,0 km/h (0 Bft)
14.03.2014 17:25 12,7 C 40 % 1022,8 hPa 0,0 l/m 0,0 km/h (0 Bft) SW 225 -0,5 C 16,1 C 0,0 km/h (0 Bft)
14.03.2014 17:30 12,5 C 41 % 1022,8 hPa 0,0 l/m 0,0 km/h (0 Bft) SW 225 -0,4 C 16,1 C 0,0 km/h (0 Bft)
14.03.2014 17:35 12,0 C 43 % 1022,8 hPa 0,0 l/m 0,0 km/h (0 Bft) SW 225 -0,2 C 16,1 C 0,0 km/h (0 Bft)
14.03.2014 17:40 11,8 C 45 % 1022,8 hPa 0,0 l/m 0,0 km/h (0 Bft) SW 225 0,3 C 16,1 C 0,0 km/h (0 Bft)
14.03.2014 17:45 11,9 C 45 % 1022,8 hPa 0,0 l/m 0,0 km/h (0 Bft) SW 225 0,4 C 16,1 C 0,0 km/h (0 Bft)
14.03.2014 17:50 11,7 C 46 % 1022,8 hPa 0,0 l/m 0,0 km/h (0 Bft) SW 225 0,5 C 16,1 C 0,0 km/h (0 Bft)
14.03.2014 17:55 11,6 C 47 % 1022,8 hPa 0,0 l/m 0,0 km/h (0 Bft) SW 225 0,7 C 16,1 C 0,0 km/h (0 Bft)
14.03.2014 18:00 11,5 C 47 % 1022,8 hPa 0,0 l/m 0,0 km/h (0 Bft) SW 225 0,6 C 16,1 C 0,0 km/h (0 Bft)
14.03.2014 18:05 11,2 C 48 % 1022,9 hPa 0,0 l/m 0,0 km/h (0 Bft) SW 225 0,6 C 16,1 C 0,0 km/h (0 Bft)
14.03.2014 18:10 11,0 C 48 % 1022,9 hPa 0,0 l/m 0,0 km/h (0 Bft) SW 225 0,4 C 16,1 C 0,0 km/h (0 Bft)
14.03.2014 18:15 11,0 C 48 % 1022,9 hPa 0,0 l/m 0,0 km/h (0 Bft) SW 225 0,4 C 16,1 C 0,0 km/h (0 Bft)
14.03.2014 18:20 10,7 C 49 % 1022,9 hPa 0,0 l/m 0,0 km/h (0 Bft) SW 225 0,4 C 16,1 C 0,0 km/h (0 Bft)
14.03.2014 18:25 10,6 C 50 % 1023,0 hPa 0,0 l/m 0,0 km/h (0 Bft) SW 225 0,6 C 16,1 C 0,0 km/h (0 Bft)
14.03.2014 18:30 8,7 C 54 % 1023,0 hPa 0,0 l/m 0,0 km/h (0 Bft) SW 225 -0,1 C 16,1 C 0,0 km/h (0 Bft)
14.03.2014 18:35 9,3 C 55 % 1023,0 hPa 0,0 l/m 0,0 km/h (0 Bft) SW 225 0,7 C 16,1 C 0,0 km/h (0 Bft)
14.03.2014 18:40 8,5 C 57 % 1023,0 hPa 0,0 l/m 0,0 km/h (0 Bft) SW 225 0,5 C 16,1 C 0,0 km/h (0 Bft)
14.03.2014 18:45 8,6 C 57 % 1023,7 hPa 0,0 l/m 0,0 km/h (0 Bft) SW 225 0,6 C 16,1 C 0,0 km/h (0 Bft)
14.03.2014 18:50 8,9 C 57 % 1023,7 hPa 0,0 l/m 0,0 km/h (0 Bft) SW 225 0,9 C 16,1 C 0,0 km/h (0 Bft)
14.03.2014 18:55 8,7 C 57 % 1023,7 hPa 0,0 l/m 0,0 km/h (0 Bft) SW 225 0,7 C 16,1 C 0,0 km/h (0 Bft)
14.03.2014 19:00 8,5 C 57 % 1023,7 hPa 0,0 l/m 0,0 km/h (0 Bft) SW 225 0,5 C 16,1 C 0,0 km/h (0 Bft)
14.03.2014 19:05 8,4 C 57 % 1023,6 hPa 0,0 l/m 0,0 km/h (0 Bft) SW 225 0,4 C 16,1 C 0,0 km/h (0 Bft)
14.03.2014 19:10 8,2 C 59 % 1023,6 hPa 0,0 l/m 0,0 km/h (0 Bft) SW 225 0,7 C 16,1 C 0,0 km/h (0 Bft)
14.03.2014 19:15 8,1 C 59 % 1023,6 hPa 0,0 l/m 0,0 km/h (0 Bft) SW 225 0,6 C 16,1 C 0,0 km/h (0 Bft)
14.03.2014 19:20 7,9 C 60 % 1023,6 hPa 0,0 l/m 0,0 km/h (0 Bft) SW 225 0,6 C 16,1 C 0,0 km/h (0 Bft)
14.03.2014 19:25 7,8 C 61 % 1023,1 hPa 0,0 l/m 0,0 km/h (0 Bft) SW 225 0,8 C 16,1 C 0,0 km/h (0 Bft)
14.03.2014 19:30 7,7 C 62 % 1023,1 hPa 0,0 l/m 0,0 km/h (0 Bft) SW 225 0,9 C 16,1 C 0,0 km/h (0 Bft)
14.03.2014 19:34 7,5 C 63 % 1023,1 hPa 0,0 l/m 0,0 km/h (0 Bft) SW 225 0,9 C 16,1 C 0,0 km/h (0 Bft)
14.03.2014 19:35 7,5 C 63 % 1023,1 hPa 0,0 l/m 0,0 km/h (0 Bft) SW 225 0,9 C 16,1 C 0,0 km/h (0 Bft)
14.03.2014 19:40 7,4 C 64 % 1023,1 hPa 0,0 l/m 0,0 km/h (0 Bft) SW 225 1,0 C 16,1 C 0,0 km/h (0 Bft)
14.03.2014 19:45 7,3 C 65 % 1023,5 hPa 0,0 l/m 0,0 km/h (0 Bft) SW 225 1,2 C 16,1 C 0,0 km/h (0 Bft)
14.03.2014 19:50 7,3 C 65 % 1023,5 hPa 0,0 l/m 0,0 km/h (0 Bft) SW 225 1,2 C 16,1 C 0,0 km/h (0 Bft)
14.03.2014 19:55 7,2 C 65 % 1023,5 hPa 0,0 l/m 0,0 km/h (0 Bft) SW 225 1,1 C 16,1 C 0,0 km/h (0 Bft)
14.03.2014 20:00 7,1 C 65 % 1023,5 hPa 0,0 l/m 0,0 km/h (0 Bft) SW 225 1,0 C 16,1 C 0,0 km/h (0 Bft)
14.03.2014 20:05 6,9 C 65 % 1023,0 hPa 0,0 l/m 0,0 km/h (0 Bft) SW 225 0,8 C 16,1 C 0,0 km/h (0 Bft)
14.03.2014 20:10 6,0 C 65 % 1023,0 hPa 0,0 l/m 0,0 km/h (0 Bft) SW 225 -0,1 C 16,1 C 0,0 km/h (0 Bft)
14.03.2014 20:15 6,2 C 67 % 1023,0 hPa 0,0 l/m 0,0 km/h (0 Bft) SW 225 0,5 C 16,1 C 0,0 km/h (0 Bft)
14.03.2014 20:20 6,4 C 67 % 1023,0 hPa 0,0 l/m 0,0 km/h (0 Bft) SW 225 0,7 C 16,1 C 0,0 km/h (0 Bft)
14.03.2014 20:25 6,0 C 67 % 1023,1 hPa 0,0 l/m 0,0 km/h (0 Bft) SW 225 0,3 C 16,1 C 0,0 km/h (0 Bft)
14.03.2014 20:30 6,1 C 68 % 1023,1 hPa 0,0 l/m 0,0 km/h (0 Bft) SW 225 0,6 C 16,1 C 0,0 km/h (0 Bft)
14.03.2014 20:35 6,3 C 68 % 1023,1 hPa 0,0 l/m 0,0 km/h (0 Bft) SW 225 0,8 C 16,1 C 0,0 km/h (0 Bft)
14.03.2014 20:40 6,4 C 67 % 1023,1 hPa 0,0 l/m 0,0 km/h (0 Bft) SW 225 0,7 C 16,1 C 0,0 km/h (0 Bft)
14.03.2014 20:45 6,2 C 67 % 1022,9 hPa 0,0 l/m 0,0 km/h (0 Bft) SW 225 0,5 C 16,1 C 0,0 km/h (0 Bft)
14.03.2014 20:50 6,0 C 67 % 1022,9 hPa 0,0 l/m 0,0 km/h (0 Bft) SW 225 0,3 C 16,1 C 0,0 km/h (0 Bft)
14.03.2014 20:55 5,3 C 68 % 1022,9 hPa 0,0 l/m 0,0 km/h (0 Bft) SW 225 -0,1 C 16,1 C 0,0 km/h (0 Bft)
14.03.2014 21:00 5,3 C 69 % 1022,9 hPa 0,0 l/m 0,0 km/h (0 Bft) SW 225 0,1 C 16,1 C 0,0 km/h (0 Bft)
14.03.2014 21:05 5,8 C 70 % 1022,9 hPa 0,0 l/m 0,0 km/h (0 Bft) SW 225 0,8 C 16,1 C 0,0 km/h (0 Bft)
14.03.2014 21:10 5,9 C 70 % 1022,9 hPa 0,0 l/m 0,0 km/h (0 Bft) SW 225 0,9 C 16,1 C 0,0 km/h (0 Bft)
14.03.2014 21:15 5,8 C 70 % 1022,9 hPa 0,0 l/m 0,0 km/h (0 Bft) SW 225 0,8 C 16,1 C 0,0 km/h (0 Bft)
14.03.2014 21:20 5,7 C 70 % 1022,9 hPa 0,0 l/m 0,0 km/h (0 Bft) SW 225 0,7 C 16,1 C 0,0 km/h (0 Bft)
14.03.2014 21:25 5,8 C 70 % 1022,8 hPa 0,0 l/m 0,0 km/h (0 Bft) SW 225 0,8 C 16,1 C 0,0 km/h (0 Bft)
14.03.2014 21:30 5,7 C 71 % 1022,8 hPa 0,0 l/m 0,0 km/h (0 Bft) SW 225 0,9 C 16,1 C 0,0 km/h (0 Bft)
14.03.2014 21:35 5,5 C 71 % 1022,8 hPa 0,0 l/m 0,0 km/h (0 Bft) SW 225 0,7 C 16,1 C 0,0 km/h (0 Bft)
14.03.2014 21:40 5,5 C 71 % 1022,8 hPa 0,0 l/m 0,0 km/h (0 Bft) SW 225 0,7 C 16,1 C 0,0 km/h (0 Bft)
14.03.2014 21:45 5,4 C 72 % 1022,9 hPa 0,0 l/m 0,0 km/h (0 Bft) SW 225 0,8 C 16,1 C 0,0 km/h (0 Bft)
14.03.2014 21:50 4,8 C 72 % 1022,9 hPa 0,0 l/m 0,0 km/h (0 Bft) SW 225 0,2 C 16,1 C 0,0 km/h (0 Bft)
14.03.2014 21:55 4,5 C 71 % 1022,9 hPa 0,0 l/m 0,0 km/h (0 Bft) SW 225 -0,3 C 16,1 C 0,0 km/h (0 Bft)
14.03.2014 22:00 4,7 C 72 % 1022,9 hPa 0,0 l/m 0,0 km/h (0 Bft) SW 225 0,1 C 16,1 C 0,0 km/h (0 Bft)
14.03.2014 22:05 4,8 C 74 % 1022,9 hPa 0,0 l/m 0,0 km/h (0 Bft) SW 225 0,6 C 16,1 C 0,0 km/h (0 Bft)
14.03.2014 22:10 4,4 C 74 % 1022,9 hPa 0,0 l/m 0,0 km/h (0 Bft) SW 225 0,2 C 16,1 C 0,0 km/h (0 Bft)
14.03.2014 22:15 3,9 C 73 % 1022,9 hPa 0,0 l/m 0,0 km/h (0 Bft) SW 225 -0,5 C 16,1 C 0,0 km/h (0 Bft)
14.03.2014 22:20 3,6 C 74 % 1022,9 hPa 0,0 l/m 0,0 km/h (0 Bft) SW 225 -0,6 C 16,1 C 0,0 km/h (0 Bft)
14.03.2014 22:25 3,4 C 74 % 1023,1 hPa 0,0 l/m 0,0 km/h (0 Bft) SW 225 -0,8 C 16,1 C 0,0 km/h (0 Bft)
14.03.2014 22:30 3,1 C 74 % 1023,1 hPa 0,0 l/m 0,0 km/h (0 Bft) SW 225 -1,1 C 16,1 C 0,0 km/h (0 Bft)
14.03.2014 22:35 3,1 C 75 % 1023,1 hPa 0,0 l/m 0,0 km/h (0 Bft) SW 225 -0,9 C 16,1 C 0,0 km/h (0 Bft)
14.03.2014 22:40 3,2 C 76 % 1023,1 hPa 0,0 l/m 0,0 km/h (0 Bft) SW 225 -0,6 C 16,1 C 0,0 km/h (0 Bft)
14.03.2014 22:45 3,1 C 76 % 1023,1 hPa 0,0 l/m 0,0 km/h (0 Bft) SW 225 -0,7 C 16,1 C 0,0 km/h (0 Bft)
14.03.2014 22:50 2,7 C 77 % 1023,1 hPa 0,0 l/m 0,0 km/h (0 Bft) SW 225 -0,9 C 16,1 C 0,0 km/h (0 Bft)
14.03.2014 22:55 3,1 C 77 % 1023,1 hPa 0,0 l/m 0,0 km/h (0 Bft) SW 225 -0,5 C 16,1 C 0,0 km/h (0 Bft)
14.03.2014 23:00 2,6 C 78 % 1023,1 hPa 0,0 l/m 0,0 km/h (0 Bft) SW 225 -0,8 C 16,1 C 0,0 km/h (0 Bft)
14.03.2014 23:05 3,2 C 78 % 1023,1 hPa 0,0 l/m 0,0 km/h (0 Bft) SW 225 -0,3 C 16,1 C 0,0 km/h (0 Bft)
14.03.2014 23:10 2,9 C 79 % 1023,1 hPa 0,0 l/m 0,0 km/h (0 Bft) SW 225 -0,4 C 16,1 C 0,0 km/h (0 Bft)
14.03.2014 23:15 3,0 C 78 % 1023,1 hPa 0,0 l/m 0,0 km/h (0 Bft) SW 225 -0,5 C 16,1 C 0,0 km/h (0 Bft)
14.03.2014 23:20 3,2 C 79 % 1023,1 hPa 0,0 l/m 0,0 km/h (0 Bft) SW 225 -0,1 C 16,1 C 0,0 km/h (0 Bft)
14.03.2014 23:25 3,0 C 79 % 1023,1 hPa 0,0 l/m 0,0 km/h (0 Bft) SW 225 -0,3 C 16,1 C 0,0 km/h (0 Bft)
14.03.2014 23:30 2,3 C 79 % 1023,1 hPa 0,0 l/m 0,0 km/h (0 Bft) SW 225 -1,0 C 16,1 C 0,0 km/h (0 Bft)
14.03.2014 23:35 2,2 C 81 % 1023,1 hPa 0,0 l/m 0,0 km/h (0 Bft) SW 225 -0,7 C 16,1 C 0,0 km/h (0 Bft)
14.03.2014 23:40 1,9 C 81 % 1023,1 hPa 0,0 l/m 0,0 km/h (0 Bft) SW 225 -1,0 C 16,1 C 0,0 km/h (0 Bft)
14.03.2014 23:45 1,8 C 81 % 1023,0 hPa 0,0 l/m 0,0 km/h (0 Bft) SW 225 -1,1 C 16,1 C 0,0 km/h (0 Bft)
14.03.2014 23:50 3,2 C 82 % 1023,0 hPa 0,0 l/m 0,0 km/h (0 Bft) SW 225 0,4 C 16,1 C 0,0 km/h (0 Bft)
14.03.2014 23:55 3,6 C 82 % 1023,0 hPa 0,0 l/m 0,0 km/h (0 Bft) SW 225 0,8 C 16,1 C 0,0 km/h (0 Bft)
_ Min-Zeit 05:55 16:20 21:40 - 23:55 - - 05:30 23:55 23:55
Minimum _ -0,9 C 33 % 1022,8 hPa - 0,0 km/h (0 Bft) - - -2,3 C 16,1 C 0,0 km/h (0 Bft)
_ Max-Zeit 11:45 08:15 09:20 23:55 23:55 - - 10:05 23:55 23:55
Maximum _ 18,8 C 96 % 1026,7 hPa 0,0 l/m 0,0 km/h
SW (0 Bft)
- - 9,3 C 16,1 C 0,0 km/h
SW (0 Bft)
Durchschnitt _ 7,7 C 67 % 1024,9 hPa #0,0 l/m 0,0 km/h (0 Bft) - - - 0,9 C 16,1 C 0,0 km/h (0 Bft)